TIME,DELAY(SENSOR),PRES,T(CTD),SAL,OXYGEN,RAWTEMP,T(OPTODE),TCPHASE,FLUOR,BETA(BETA700),BETA(BETA412),BETA(BETA440),CDOM,C(CSC),ED(ED412.40),ED(ED444.00),ED(ED489.70),ED(ED554.30),LU(LU411.80),LU(LU443.40),LU(LU489.60),LU(LU554.10),COMP,TILTX,TILTX(TILTY),CHECK
1340313749,5808,497.4500122070312500,6.4128999710083010,34.1929016113281250,60.3855018615722660,605.9406127929688000,6.3921952247619630,51.4394493103027340,53,105,88,81,80,15368,2147753590,2147420041,2148004827,2147870235,2147632338,2147078692,2148252425,2147199012,2455,4,13,3718
1340313872,5810,486.3900146484375000,6.4960999488830570,34.1797981262207000,64.3095321655273400,603.5134277343750000,6.4707150459289550,50.8919715881347660,53,105,87,80,80,15363,2147752603,2147421888,2148002989,2147870317,2147633993,2147076763,2148247990,2147197202,2696,4,13,42940
1340314004,5809,474.9200134277344000,6.6662001609802250,34.1675987243652340,69.1782836914062500,598.1627197265625000,6.6436038017272950,50.1972389221191400,53,106,89,81,80,15366,2147754907,2147419684,2148003547,2147875163,2147629897,2147078518,2148245632,2147204982,3561,4,13,65200
1340314128,5811,464.8299865722656000,6.8393001556396480,34.1650009155273440,73.9778289794921900,592.4880981445312000,6.8266601562500000,49.5237884521484400,52,105,85,81,80,15364,2147750957,2147422427,2148004763,2147873929,2147629933,2147081325,2148248822,2147204013,14,4,13,50025
1340314271,5806,454.0499877929687500,6.9520998001098630,34.1487998962402340,80.0081634521484400,589.1107788085938000,6.9354691505432130,48.7502784729003900,51,106,86,81,81,15362,2147749074,2147421659,2148003382,2147875254,2147626669,2147079698,2148241307,2147201344,3318,4,13,35801
1340314447,5807,441.8900146484375000,7.1166000366210940,34.1246986389160160,93.9754867553711000,583.3989868164062000,7.1192460060119630,47.0798606872558600,52,105,88,80,78,15362,2147750976,2147419602,2148004544,2147875172,2147626806,2147087378,2148243977,2147204114,2667,4,13,45380
1340314593,5810,430.0499877929687500,7.3578000068664550,34.1200981140136700,104.8723983764648400,576.4268798828125000,7.3431677818298340,45.8175086975097660,52,108,87,80,79,15364,2147750802,2147420891,2148005385,2147872667,2147624996,2147083382,2148243072,2147204845,3340,4,13,48459
1340314747,5809,417.1499938964844000,7.7272000312805180,34.1097984313964840,119.7515029907226600,564.8641967773438000,7.7135810852050780,44.1555595397949200,51,106,92,80,77,15363,2147747867,2147420608,2148004288,2147871680,2147625965,2147085248,2148243565,2147196717,678,4,13,19025
1340314860,5811,405.6900024414062500,8.0151996612548830,34.1063003540039060,131.1674957275390600,556.0059204101562000,7.9965720176696780,42.9505081176757800,50,107,90,80,79,15362,2147749476,2147420763,2148002596,2147872320,2147623954,2147090166,2148235867,2147205110,1231,4,14,64923
1340314959,5807,395.0100097656250000,8.3786001205444340,34.1072006225585940,141.9691925048828000,544.4628295898438000,8.3643522262573240,41.8096389770507800,51,107,90,81,76,15359,2147744118,2147420754,2148000667,2147875017,2147622171,2147089865,2148233993,2147203794,2121,4,14,24526
1340315077,5809,383.2399902343750000,8.7091999053955080,34.1076011657714840,152.7075042724609400,534.2263183593750000,8.6895961761474610,40.7477912902832000,50,107,93,81,76,15365,2147747858,2147420480,2148001280,2147876873,2147623442,2147096493,2148235346,2147202560,2127,4,13,19396
1340315198,5810,372.0100097656250000,8.8114995956420900,34.1116981506347660,158.6670074462890600,530.8472290039062000,8.7967739105224610,40.2211494445800800,50,106,89,82,75,15361,2147743734,2147421202,2148003392,2147870436,2147617819,2147097097,2148232868,2147207506,2446,4,13,893
1340315308,5805,361.7099914550781000,9.1604995727539060,34.1296997070312500,158.9624938964843800,519.4340209960938000,9.1581459045410160,40.0003395080566400,50,109,88,80,76,15355,2147743698,2147424676,2148000841,2147873947,2147616786,2147096960,2148231241,2147203264,2862,4,13,15378
1340315431,5807,350.8999938964844000,9.4960002899169920,34.1365013122558600,162.5462951660156200,508.6691894531250000,9.4980916976928710,39.5407218933105500,50,110,94,83,74,15358,2147741586,2147424100,2148003017,2147874194,2147614646,2147097673,2148227940,2147203264,138,4,14,2700
1340315574,5810,340.1000061035156000,10.0691003799438480,34.1418991088867200,171.2684936523437500,491.9454040527344000,10.0245800018310550,38.6088600158691400,50,110,88,80,73,15352,2147740434,2147424246,2148000758,2147872045,2147612324,2147104448,2148225609,2147201554,3251,4,13,30314
1340315738,5809,328.3800048828125000,10.5226001739501950,34.1576004028320300,184.4770965576172000,476.2132873535156000,10.5181198120117190,37.4228096008300800,49,110,89,80,71,15354,2147738331,2147424338,2148003273,2147874093,2147610294,2147111570,2148225353,2147207872,2105,4,14,63589
1340315870,5808,317.1700134277344000,10.8901996612548830,34.1733016967773440,190.1824951171875000,464.5787963867187500,10.8821001052856450,36.8526496887207000,49,111,91,81,71,15355,2147736393,2147424036,2148005714,2147872393,2147610989,2147107172,2148224978,2147209837,1276,4,14,58254
1340315994,5812,306.2000122070312500,11.3051004409790040,34.1865997314453100,194.1289978027343800,450.6489868164062500,11.3168201446533200,36.3697509765625000,49,110,90,81,71,15352,2147734116,2147425206,2148009334,2147874358,2147606326,2147111460,2148221906,2147205961,71,3,14,57860
1340316115,5809,294.4299926757812500,11.8302001953125000,34.2126998901367200,202.9918975830078000,434.2572021484375000,11.8269500732421880,35.5559501647949200,49,110,89,80,70,15356,2147732507,2147428662,2148028379,2147871945,2147601133,2147118592,2148227337,2147212333,38,4,13,63282
1340316236,5808,282.6400146484375000,12.3633003234863280,34.2491989135742200,209.1840972900390600,416.6788024902344000,12.3724498748779300,34.9093208312988300,49,105,88,80,70,15354,2147733174,2147439296,2148062720,2147874505,2147602148,2147126994,2148243364,2147209536,1733,4,14,31959
1340316348,5809,272.2200012207031000,12.8044004440307620,34.2770004272460940,211.1750030517578000,402.7709045410156000,12.8029804229736330,34.5764503479003900,49,109,90,80,70,15355,2147733211,2147435776,2148061056,2147872932,2147600649,2147135689,2148240877,2147211620,2110,3,14,14846
1340316480,5807,261.5400085449219000,13.2215003967285160,34.3100013732910160,214.5451965332031200,388.6046142578125000,13.2406301498413090,34.1660194396972660,49,108,88,80,69,15356,2147732516,2147452964,2148112923,2147875346,2147598427,2147143524,2148263030,2147213760,1202,3,15,50059
1340316637,5807,251.2799987792968800,13.8220996856689450,34.3588981628418000,213.0780944824218800,367.9841003417969000,13.8762102127075200,33.9334602355957000,48,107,87,82,69,15349,2147729792,2147452452,2148087762,2147870866,2147595840,2147150701,2148249618,2147213732,814,3,13,2074
1340316824,5807,240.3399963378906200,14.6354999542236330,34.4313011169433600,211.8170928955078000,344.9142150878906000,14.5855197906494140,33.6573295593261700,49,109,90,81,67,15350,2147729737,2147496155,2148217728,2147874724,2147590683,2147172772,2148307529,2147216338,1911,3,14,22024
1340316990,5810,228.6000061035156200,15.4455995559692380,34.5218009948730500,214.2312927246093800,314.2099914550781000,15.5271396636962890,33.0691604614257800,49,106,88,81,67,15350,2147731090,2147524845,2148285385,2147876553,2147591981,2147201298,2148336704,2147220379,2808,3,15,19880
1340317122,5809,218.1000061035156200,16.2812995910644530,34.6105995178222660,213.8522033691406200,289.0889892578125000,16.2959804534912100,32.7263488769531250,49,108,90,81,66,15346,2147740388,2147565970,2148375963,2147876672,2147591259,2147226852,2148377051,2147224832,3534,3,14,58414
1340317278,5809,205.9799957275390600,17.1833000183105470,34.7122993469238300,213.1071929931640600,260.4516906738281000,17.1712799072265620,32.3590393066406250,50,105,91,81,67,15342,2147756708,2147651291,2148558409,2147876827,2147590144,2147285138,2148461906,2147234934,1793,3,14,1234
1340317377,5809,196.8699951171875000,17.9883995056152340,34.8063011169433600,212.1042022705078000,234.0794982910156200,17.9767608642578120,32.0444602966308600,56,108,89,81,66,15338,2147782546,2147768484,2148780214,2147877769,2147598747,2147352841,2148565878,2147236918,1615,4,14,14493
1340317432,5806,191.6799926757812500,18.5347003936767580,34.8689002990722660,211.0554962158203000,216.4819946289062500,18.5141601562500000,31.8576107025146500,62,110,88,81,66,15331,2147801536,2147841280,2148929152,2147876909,2147604690,2147392813,2148630902,2147244699,2354,2,15,36279
1340317487,5810,186.5500030517578000,18.9423999786376950,34.9216995239257800,210.9105072021484400,202.3825073242187500,18.9447994232177730,31.6715908050537100,66,112,91,82,64,15326,2147839186,2147957037,2149148745,2147876077,2147615835,2147448758,2148716470,2147249792,2552,3,15,29171
1340317562,5811,179.9600067138672000,19.4449005126953120,34.9771003723144500,211.8919067382812500,186.6186065673828000,19.4264507293701170,31.4031391143798830,71,121,89,81,66,15317,2147894473,2148119917,2149442404,2147875904,2147634660,2147538761,2148844516,2147265325,2559,3,15,43646
1340317617,5808,175.6399993896484400,19.5167007446289060,34.9905014038085940,212.2651062011718800,182.5267944335937500,19.5515098571777340,31.3273296356201170,76,117,88,82,65,15317,2147957888,2148286875,2149730560,2147882395,2147655616,2147621549,2148968960,2147272676,1782,2,15,38010
1340317672,5809,171.3800048828125000,19.8920001983642580,35.0270996093750000,212.4559936523437500,171.7350006103515600,19.8814506530761720,31.1712493896484380,78,116,90,82,64,15313,2147923830,2148120905,2149333284,2147877083,2147644726,2147539072,2148786148,2147261110,1162,3,15,23859
1340317727,5807,167.3600006103515600,20.0625991821289060,35.0471992492675800,212.7136993408203000,164.0830993652343800,20.1154899597167970,31.0544300079345700,83,118,93,82,64,15308,2148065682,2148511296,2150066944,2147881837,2147692059,2147718747,2149089152,2147279378,1095,2,15,5349
1340317782,5809,163.7200012207031200,20.3236999511718750,35.0709991455078100,213.0399017333984400,157.2310028076172000,20.3251590728759770,30.9452304840087900,87,121,90,83,64,15300,2148053988,2148431524,2149841225,2147884370,2147691136,2147681938,2148983332,2147276059,693,3,15,50599
1340317837,5808,160.4299926757812500,20.7212009429931640,35.1179008483886700,213.7733001708984400,145.6049957275390600,20.6811008453369140,30.7511005401611330,92,119,92,83,65,15292,2148160813,2148671561,2150229028,2147882870,2147727177,2147791286,2149138742,2147285412,1091,2,16,37469
1340317916,5807,156.7500000000000000,20.7285003662109380,35.1222991943359400,215.8854980468750000,144.2991943359375000,20.7210998535156250,30.6224193572998050,99,122,92,82,64,15294,2148129974,2148502537,2149847771,2147881654,2147713627,2147702436,2148961856,2147277202,890,2,16,65351
1340318026,5807,152.7599945068359400,20.8579998016357420,35.1335983276367200,216.3668975830078000,139.6246948242187500,20.8643093109130860,30.5352497100830080,97,119,91,82,64,15291,2148218614,2148641133,2150029366,2147886619,2147746358,2147768137,2149023469,2147283081,967,2,15,12050
1340318136,5810,148.8800048828125000,21.0935993194580080,35.1613998413085940,219.0702972412109400,132.1470947265625000,21.0935001373291000,30.2968692779541000,99,120,91,83,64,15288,2148320146,2148801462,2150247030,2147883986,2147786669,2147848173,2149114998,2147292032,3396,2,16,57163
1340318233,5807,144.4700012207031200,21.2087993621826170,35.1743011474609400,221.3657989501953000,128.2041015625000000,21.2144107818603500,30.1282501220703120,101,121,92,83,64,15281,2148515446,2149107337,2150664777,2147891081,2147863817,2147988800,2149276672,2147306651,2855,2,16,33790
1340318310,5809,140.2599945068359400,21.6511993408203120,35.2094001770019500,222.7669982910156200,114.6765975952148400,21.6295509338378900,29.8814105987548830,109,120,91,83,63,15268,2148646473,2149264621,2150804726,2147893193,2147916681,2148064420,2149337289,2147311268,1777,2,16,37453
1340318387,5803,137.0200042724609400,21.7884006500244140,35.2168006896972660,224.7174072265625000,110.2474975585937500,21.7655792236328120,29.7268390655517580,116,121,94,82,63,15262,2149103058,2150062729,2151961152,2147903104,2148090139,2148426304,2149793417,2147351158,640,2,15,15325
1340318497,5808,133.0700073242187500,22.0245990753173830,35.2384986877441400,226.8029022216797000,103.1092987060546900,21.9849491119384770,29.5324192047119140,124,123,91,83,62,15252,2150083254,2151719835,2154273627,2147925504,2148474605,2149188416,2150747830,2147435849,153,3,15,18727
1340318664,5809,129.6100006103515600,22.3251991271972660,35.2411994934082000,227.3824005126953000,92.7806930541992200,22.3026695251464840,29.3714504241943360,134,118,91,83,63,15254,2152502564,2155688219,2159719844,2147983680,2149361938,2150840155,2152799058,2147614582,415,2,16,42591
1340318908,5810,126.0599975585937500,22.7819995880126950,35.2961006164550800,237.0803070068359400,77.5787963867187500,22.7709693908691400,28.7198600769042970,116,116,90,83,62,15255,2153946907,2157618066,2161706441,2148007049,2150034934,2151737764,2153617243,2147691584,3270,2,16,41903
1340319029,5806,121.7300033569336000,22.8535995483398440,35.2966003417968750,240.0758056640625000,75.1303329467773400,22.8464794158935550,28.5523490905761720,114,117,90,83,59,15257,2155382144,2159539520,2163733604,2148043309,2150798125,2152734235,2154537453,2147783149,2777,2,16,65331
1340319128,5807,118.1500015258789000,22.9817008972167970,35.2876014709472660,241.1873016357422000,71.0294265747070300,22.9729995727539060,28.4508094787597660,106,118,93,82,60,15257,2157255926,2162125211,2166617883,2148097097,2151735076,2154054765,2155835675,2147898450,2254,2,16,61905
1340319239,5803,113.2200012207031200,23.1418991088867200,35.2808990478515600,241.9748992919922000,65.9768218994140600,23.1289806365966800,28.3521308898925780,101,120,93,83,59,15243,2159979309,2165646848,2170081033,2148180397,2153149558,2155931126,2157614518,2148065755,2292,2,16,11346
1340319316,5809,109.1399993896484400,23.2220001220703120,35.2752990722656250,242.3968048095703000,63.0313110351562500,23.2199592590332030,28.2965602874755860,94,122,90,84,59,15254,2162887561,2169468470,2173980425,2148279286,2154657526,2157906614,2159447670,2148233846,2415,2,16,52419
1340319393,5810,105.3399963378906200,23.4729003906250000,35.2547988891601560,239.8872985839843800,55.6483497619628900,23.4481697082519530,28.3169593811035160,86,128,93,86,61,15246,2166160566,2173489728,2177862400,2148395108,2156242038,2160006482,2161402898,2148419163,2267,2,16,21974
1340319481,5804,101.6900024414062500,23.5655002593994140,35.2383995056152340,239.5953979492187500,52.1152191162109400,23.5574703216552730,28.2859001159667970,85,124,92,84,59,15234,2169903414,2177933092,2182043190,2148540050,2158150518,2162480722,2163626093,2148628864,2232,2,16,58638
1340319549,5809,99.1200027465820300,23.7292003631591800,35.2223014831543000,241.0075988769531200,47.2943115234375000,23.7066898345947270,28.1624794006347660,82,125,95,85,61,15227,2172466962,2180945069,2184920027,2148659648,2159618733,2164332608,2165187108,2148782994,2013,2,16,58584
1340319604,5808,97.5199966430664000,23.7518997192382800,35.2295989990234400,242.4225006103515600,46.1769790649414060,23.7412891387939450,28.0855197906494140,81,124,90,85,58,15229,2173833682,2182399323,2186267428,2148729910,2160526592,2165412964,2166066971,2148861284,1335,2,16,29771
1340319659,5806,96.3199996948242200,23.7609996795654300,35.2280006408691400,243.2194976806640600,45.6901588439941400,23.7563705444335940,28.0442295074462900,80,125,92,83,59,15236,2175281517,2184286299,2188093284,2148792850,2161351186,2166465636,2166956461,2148942134,844,2,16,27521
1340319762,5807,94.5500030517578100,23.7607002258300780,35.2249984741210940,244.0942993164062500,45.5836486816406250,23.7596702575683600,28.0041694641113280,80,124,92,85,62,15231,2177407396,2186548516,2189759451,2148871762,2162893824,2168231040,2168289170,2149074432,3347,2,16,4750
1340319876,5809,92.1500015258789000,23.8619995117187500,35.2228012084960940,244.6020965576172000,42.6105003356933600,23.8517799377441400,27.9449901580810550,78,126,92,86,58,15226,2182654756,2192690587,2195416173,2149102281,2166226422,2172192484,2171432594,2149371949,3232,2,16,54123
1340319943,5805,90.0299987792968800,23.9185009002685550,35.2232017517089840,245.3955993652343800,40.6307601928710940,23.9131298065185550,27.8859691619873050,77,125,91,85,59,15219,2186638875,2197212233,2199523209,2149330340,2169017536,2175332086,2173649837,2149592301,2533,2,16,59076
1340320010,5809,88.0800018310546900,24.1156005859375000,35.2216987609863300,245.3838043212890600,34.0737304687500000,24.1164798736572270,27.8052997589111330,74,124,94,83,57,15225,2190493924,2201314358,2203020141,2149521344,2171992338,2178667858,2176079542,2149821549,1579,1,17,42338
1340320089,5809,86.5100021362304700,24.2712993621826170,35.2266998291015600,245.6316986083984400,30.0802192687988280,24.2404403686523440,27.7454891204834000,73,125,94,85,58,15221,2192897097,2203601371,2204600484,2149666203,2174471003,2181301330,2177817572,2149977837,802,2,16,49318
1340320191,5804,83.7099990844726600,24.6135997772216800,35.2489013671875000,245.5937957763672000,19.2469291687011720,24.5771102905273440,27.6138496398925780,70,126,95,86,60,15219,2198866093,2210212534,2210248713,2149995190,2180047542,2187184704,2181793426,2150346386,383,2,16,32460
1340320246,5808,81.7399978637695300,24.7304992675781250,35.2599983215332000,245.3605957031250000,14.3557100296020500,24.7293205261230470,27.5640602111816400,67,125,94,86,58,15217,2203107008,2214654189,2214000740,2150334381,2184274185,2191620160,2184797705,2150646820,616,1,16,26896
1340320301,5810,79.6699981689453100,24.9090995788574220,35.2807006835937500,244.9199066162109400,9.2216672897338870,24.8892307281494140,27.5202503204345700,68,125,93,86,59,15214,2208596635,2221196498,2220268388,2150710756,2189025426,2196846409,2188607990,2151018176,3473,2,16,61739
1340320356,5805,77.7500000000000000,24.9979991912841800,35.2859001159668000,244.5816955566406200,5.9348878860473630,24.9916801452636720,27.4946994781494140,66,125,95,84,55,15208,2210500800,2222576886,2220766034,2150915446,2191473773,2199021668,2189752777,2151146075,3316,2,17,21628
1340320411,5810,75.8199996948242200,25.0981006622314450,35.2797012329101560,244.6566925048828000,2.7426209449768066,25.0912494659423830,27.4524402618408200,65,125,93,86,55,15206,2218258523,2231371876,2229306688,2151610880,2197460525,2205590884,2194710948,2151678601,3485,1,17,40285
1340320489,5809,72.8700027465820300,25.3575000762939450,35.2710990905761700,243.6867065429687500,-5.0940160751342770,25.3359298706054700,27.3988094329834000,64,125,93,86,55,15197,2226575981,2239698980,2236495625,2152291931,2204662537,2213231305,2199974528,2152215926,241,1,17,59818
1340320544,5807,70.6500015258789000,25.4193992614746100,35.2685012817382800,242.8894958496093800,-7.4141349792480470,25.4084396362304700,27.4052391052246100,62,123,94,84,60,15205,2234681965,2247604096,2243579940,2153246518,2209892489,2218629686,2203568731,2152680164,605,1,17,37489
1340320599,5807,68.7200012207031200,25.4720001220703120,35.2635993957519500,242.1405029296875000,-9.0115966796875000,25.4583797454834000,27.4185600280761720,60,123,94,85,58,15209,2241876150,2254336475,2249030189,2153862683,2215526098,2224689810,2207935643,2153153883,308,2,16,50715
1340320654,5806,67.0500030517578100,25.5139999389648440,35.2573013305664060,241.7841949462890600,-10.5107097625732420,25.5052604675292970,27.4157905578613280,59,124,92,86,62,15205,2251168603,2263644736,2257315894,2154741924,2221536338,2231246528,2212608585,2153699300,660,2,16,43351
1340320721,5809,65.3799972534179700,25.6019001007080080,35.2431983947753900,241.2075958251953000,-13.1086597442626950,25.5865402221679700,27.4094505310058600,58,123,94,83,58,15209,2260116937,2271997348,2264199186,2155417243,2228431808,2238415515,2217398153,2154216374,1012,1,17,12158
1340320811,5810,63.2500000000000000,25.6921997070312500,35.2360000610351560,240.6640014648437500,-16.3568897247314450,25.6882305145263670,27.3937301635742200,58,125,91,87,57,15196,2271147053,2281007232,2270875821,2156499035,2236385124,2245782555,2221588068,2154744082,730,1,16,62937
1340320890,5807,60.9300003051757800,25.7241992950439450,35.1422996520996100,240.1634979248047000,-17.6216392517089840,25.7278404235839840,27.4002494812011720,57,122,97,86,59,15186,2285115520,2293929910,2281667501,2158329353,2250143634,2259043538,2230089152,2155788699,3476,2,17,50629
1340320957,5810,59.3300018310546900,25.7042007446289060,35.0306015014648440,239.4839935302734400,-17.3711490631103500,25.7199993133544920,27.4334602355957030,58,121,93,87,56,15185,2292930532,2301408082,2288303917,2159386514,2259290176,2266985024,2234667309,2156322459,291,2,16,32503
1340321107,5809,56.6100006103515600,25.6804008483886720,34.9514007568359400,238.0648040771484400,-16.3287601470947270,25.6873493194580080,27.5093498229980470,56,122,91,83,58,15172,2269481289,2273876452,2261502701,2158084434,2249855268,2251540461,2220223488,2155055670,864,1,17,43412
1340321162,5812,54.5000000000000000,25.6714000701904300,34.9230003356933600,237.5057067871093800,-16.0899696350097660,25.6798706054687500,27.5372905731201170,55,118,93,84,58,15193,2310538889,2319379538,2305886500,2163869476,2293192713,2296165312,2251786806,2158565632,157,2,16,12494
1340321217,5809,52.4300003051757800,25.6702003479003900,34.9193000793457000,237.0885009765625000,-16.0582103729248050,25.6788806915283200,27.5563697814941400,53,116,90,83,55,15203,2321239012,2331238400,2317913490,2166710628,2308331008,2308917741,2259437888,2159753892,3417,2,17,24855
1340321272,5804,50.2299995422363300,25.6681995391845700,34.9183998107910160,236.9371948242187500,-16.0628299713134770,25.6790199279785160,27.5631999969482420,55,115,92,82,56,15200,2325981394,2335511789,2322054555,2169311085,2322975323,2321091108,2266290953,2160700909,3285,2,17,45391
1340321327,5806,47.9599990844726560,25.6646995544433600,34.9146003723144500,236.9208984375000000,-15.9062595367431640,25.6741199493408200,27.5657901763916000,54,116,93,85,63,15202,2337526692,2348003611,2334486921,2172683172,2340271085,2336135350,2275568457,2162249581,3099,2,17,48152
1340321382,5808,45.7000007629394500,25.6678009033203120,34.9137992858886700,236.8820037841797000,-15.9486503601074220,25.6754493713378900,27.5669593811035160,54,114,90,82,56,15206,2343160950,2353313883,2339683236,2175813458,2357296356,2350729334,2284066011,2163542592,2958,2,16,30398
1340321459,5811,42.1300010681152340,25.6676998138427730,34.9131011962890600,236.8793945312500000,-15.9417600631713870,25.6752300262451170,27.5671195983886720,52,114,90,82,56,15209,2366933412,2378831981,2365509577,2185150080,2393821476,2382791963,2303857581,2167075913,2778,1,16,44997
1340321514,5811,39.1399993896484400,25.6741008758544920,34.9132003784179700,236.8892974853515600,-16.1081695556640620,25.6804409027099600,27.5646800994873050,53,115,92,85,54,15211,2376562267,2388233910,2375629376,2191124516,2418330294,2403037056,2315494162,2169183689,2701,1,17,63659
1340321569,5808,36.1800003051757800,25.6770992279052730,34.9132995605468750,236.8733978271484400,-16.2990608215332030,25.6864204406738280,27.5628890991210940,53,114,91,85,51,15206,2402605211,2418332278,2408999369,2206971812,2443061385,2424264448,2329296676,2173460681,2432,1,17,65295
1340321624,5805,33.1699981689453100,25.6802997589111330,34.9137001037597660,237.1376953125000000,-16.3904209136962900,25.6892795562744140,27.5499496459960940,52,114,89,83,55,15211,2408429888,2422282377,2412546797,2213432795,2478898148,2454889133,2346576009,2176294528,2393,1,17,18179
1340321679,5808,29.9899997711181640,25.6856002807617200,34.9141998291015600,237.0751953125000000,-16.5649890899658200,25.6947498321533200,27.5507106781005860,52,114,93,85,52,15214,2426749888,2441241609,2432516617,2226826825,2517862939,2489375698,2368433792,2181480576,2192,1,17,29495